CAPE
78 82 126 92 134 120 126 130 142 241 441 486 556 301 940 720 1227 1233 1784 2148 2435 2618 2642 2870 2478 2332 2678 3001 2911 3072 3126 3401 2830 3288 2972 2735 2573 2766 2988 2891 3285 2699 2462 2926 2422 3125 3249 3101 2979 3277 3510 3221 3540 3403 3394 3482 3846 3339 3459 3799 3714 3632 3364
43 50 55 39 64 88 97 122 157 370 554 663 639 617 751 734 1186 1201 1599 1987 2225 2640 2530 2698 2581 2255 2240 2543 2597 2866 3010 3204 2938 2726 2677 3213 3176 3494 3077 2936 2730 3003 3341 2446 2866 3012 3262 3846 3535 3642 3925 3428 3461 3710 3348 3507 3352 3310 3464 3793 3642 4342 4137
132 38 43 39 37 72 101 119 209 528 598 674 685 442 531 754 1075 1207 1493 1494 2051 2159 2164 2227 2572 2251 2067 2247 2128 2424 2603 2776 3117 3061 2640 2459 2486 2915 2876 3018 3033 2419 2755 2679 2722 2950 3134 3272 3795 3676 3679 3262 3112 3408 3407 3256 3396 3270 4416 5143 3877 3774 4110
106 96 112 108 84 81 110 226 348 598 617 540 544 494 565 716 920 1100 1396 1444 1381 1916 1933 2125 2044 2003 2138 2138 2101 2102 2096 2500 2660 2575 2496 2306 2157 2465 2415 3498 2898 2589 2518 2788 2517 2468 2208 3136 2856 3788 3723 3581 3484 2816 3218 3384 2911 3107 3909 4089 3546 4377 4478
108 122 102 128 69 67 104 214 332 466 562 643 493 732 635 645 916 1006 1072 912 820 1008 1398 1585 1404 1536 1716 1883 1836 1924 1928 1850 2140 2375 2227 1982 1853 1999 2433 2739 2522 2638 2519 2412 2634 2815 2720 2680 2680 3928 2963 3359 3907 3703 3172 3343 3531 3296 4104 3785 3328 3937 3953
250 240 171 158 148 107 129 133 216 317 415 434 472 413 633 823 962 1017 944 792 706 588 946 1117 988 1167 1491 1474 1595 1382 1721 1778 1867 2311 2016 1958 2394 2112 2196 2320 2113 2159 2469 2231 2471 2069 3005 2549 2783 2979 2379 2748 2912 2865 2790 2948 3025 3204 3880 3339 2994 3467 3043
370 299 348 211 126 170 152 167 149 350 537 365 419 559 440 796 1224 1060 987 561 730 502 547 773 809 1045 1279 1146 1272 1197 1479 1517 1619 1542 2056 2313 2327 2289 2200 1982 1854 1764 2229 2161 2324 1797 2325 2139 2690 2671 2629 2404 2309 2582 2361 3203 2967 3077 3838 3326 3776 3893 3624
1017 895 454 356 200 145 97 210 224 426 529 632 476 500 365 662 910 855 1471 1230 874 710 659 680 615 912 1351 1166 1080 854 1116 1167 1266 1386 1448 1968 2320 2314 2178 2292 2270 2002 2243 2142 2282 2484 2132 2247 2418 2640 2425 2625 2488 2460 2986 3420 3814 3397 3411 3644 4346 3409 3153
1383 1336 1264 1282 495 234 229 280 257 382 714 947 953 873 510 469 922 1333 1368 1447 1151 830 714 872 793 604 1279 1122 1096 1054 954 873 1136 1121 1139 1140 1794 1561 1875 2220 2183 2345 2383 2194 2206 2444 2335 2238 2059 2052 2654 2333 2456 2881 3229 3720 2925 2862 3109 3317 3777 3768 3391
1848 1734 824 482 549 285 297 289 292 283 793 1144 1294 891 685 743 1714 2209 1817 2000 1801 1149 1049 1130 920 853 1478 1320 1242 1025 839 773 796 771 644 623 733 1277 1272 1589 1972 2211 2324 2117 2049 1955 2345 2411 2121 2521 2927 2660 3425 3038 2914 3633 3000 2660 2893 3677 4221 4103 3571
1955 1969 1427 1216 700 345 243 251 265 546 1001 1976 2306 1914 1288 1026 1762 2673 2726 2938 2937 1701 1636 1314 910 846 1390 1499 1220 1023 849 784 550 355 468 339 382 473 588 642 1062 1944 1871 1690 1469 1832 1937 2232 2368 3102 2990 2398 3298 3655 2927 3958 3148 2940 2993 3122 3199 3102 2860
2755 3139 3123 2870 2038 1122 957 1097 908 942 1612 2366 2558 1884 2460 2488 2683 3114 3242 3262 3486 2974 2789 2113 1296 1232 1708 1633 1237 1403 1220 907 548 373 398 374 239 201 239 372 365 1108 1448 1358 1228 1276 1807 2005 1995 2745 3206 2450 2862 3109 2993 3079 3381 3239 3188 2977 2993 2853 2638
2746 2503 2553 2806 2899 2796 2761 2500 1998 2339 2636 2477 2316 2449 2643 2721 2818 3183 3320 3258 3293 3389 3350 3094 2579 1921 2158 1992 1400 1744 1661 1177 715 373 249 335 215 121 178 153 238 321 642 1073 1061 1090 1209 1840 2038 1944 2638 2408 2801 2864 3358 3470 2989 3564 3470 3008 2935 2562 2614
1968 2289 1926 2354 2384 2594 2673 2988 3007 3099 3181 3014 2474 2258 2427 2671 2798 3136 3169 3130 3174 3279 3389 3407 3329 2986 2957 2734 1726 1871 1986 1584 1041 773 363 219 303 217 146 135 144 189 245 437 642 565 630 729 1189 1822 1998 2308 1958 1933 2338 3012 2787 2862 2987 2916 2635 2114 2062
1079 1084 1369 1871 2278 2416 2360 2227 2241 2343 2062 2527 2719 3008 3042 2758 2799 3105 2948 2926 3284 3106 3043 3372 3785 3749 3678 3417 2361 2506 2565 2009 1530 1384 1248 1271 823 565 508 353 262 238 235 216 260 258 266 260 274 455 1078 1364 1330 1382 1228 1101 1700 1725 2152 2418 2413 2321 1836
1217 1220 1456 1353 1507 1780 2143 2229 2056 1965 1957 1914 2028 2370 2696 2679 2848 2770 2768 2767 2849 3059 3297 3478 3934 3879 3782 3545 3164 3225 3308 3020 2489 2499 2527 2585 2572 2463 1804 1119 772 316 225 282 274 305 259 226 222 225 147 503 730 857 675 478 457 1168 1636 1998 2869 1872 1256
1424 1524 1341 1451 1457 1685 1986 2331 2365 2043 1801 1894 1795 1913 1899 2084 2380 2328 2468 2452 2420 2598 2951 3133 3229 3808 4096 4013 4121 4256 3994 3818 3411 3436 3376 3411 3419 3467 3346 2840 1736 1125 1214 985 945 790 660 452 209 174 149 135 247 488 506 508 618 1518 1159 1278 1287 1876 1744
1200 1381 1505 1565 1732 1796 2018 2118 2142 1865 1807 1940 2098 2005 1875 1984 2146 2017 2171 2098 2208 2381 2589 2704 2768 2983 3314 3685 4078 3886 3783 3513 3323 3257 3091 3198 3546 3588 3721 3502 3149 2840 2550 2183 1489 1544 1072 674 805 646 206 52 71 108 182 451 792 1411 1264 1313 1416 1590 2079
1343 1478 1758 1906 1801 1771 1831 1876 1501 1808 1882 1848 1854 2032 2352 2490 2073 1970 1995 2028 2374 2484 2713 2691 2572 2791 3021 3217 3192 2877 2630 2416 2161 2128 2304 2784 3567 3659 3830 3745 3142 3137 3144 3078 3266 2454 2325 1854 1533 1315 1181 468 146 32 56 1324 671 1016 1161 1335 1276 1149 1076
1377 1142 1190 1170 1143 1122 1090 1155 1268 1279 1333 1267 1246 1284 1316 1500 1455 1330 1497 1618 1785 1686 1669 2077 2147 2346 2412 2499 2299 2159 2010 2060 1980 1858 1864 2081 2313 2782 3070 3239 3329 3432 3411 3456 3749 3706 3620 2981 2107 1680 1546 1284 931 578 452 996 999 562 787 864 864 838 755
925 950 850 924 916 879 930 998 1099 1070 1165 1132 1086 1111 1149 1192 1236 1198 1103 966 1015 956 1100 1391 1351 1382 1705 1838 1942 1844 2055 1973 2110 2011 1942 1805 1763 1832 1840 1925 2514 2722 3172 3441 3440 3681 3844 3409 2550 2468 2402 2562 1783 1608 1428 1245 1119 1018 890 941 836 770 761
662 656 689 673 696 736 818 881 917 884 912 923 1043 1051 1010 1016 1005 1069 1003 828 654 728 699 787 888 844 833 1179 1247 1482 1558 1877 1522 1903 1981 1889 1888 2162 1704 1875 2058 1611 2591 3039 3323 2569 1884 1767 1790 1630 1840 2092 1946 1026 945 1392 1401 1246 1111 1073 1048 927 1030
642 715 768 753 757 763 723 699 662 643 603 622 675 663 729 805 888 949 925 840 682 532 619 523 439 515 578 675 980 1072 1130 1162 1271 1363 1768 1446 1209 1942 1876 1898 1953 2068 2215 2211 2318 1666 1512 1542 1384 1400 1272 1294 1368 1184 1377 1178 1289 1320 1196 1078 1010 920 1433
585 561 657 636 619 590 516 425 427 413 425 497 578 592 559 567 620 645 718 819 779 706 774 776 592 563 544 469 407 466 696 827 787 752 694 865 948 988 1502 1561 1545 1577 1552 1155 1122 1084 1231 1139 1229 1179 1069 1142 1144 942 1191 1255 1197 1304 1275 1184 1022 997 1322
594 558 647 505 429 398 296 345 372 392 382 345 348 283 197 243 402 553 667 643 670 632 558 553 543 566 555 534 544 542 544 570 503 519 452 602 628 882 1077 990 811 752 715 682 685 831 780 719 742 861 807 890 850 1106 946 1023 1142 1081 1041 1006 965 876 810
598 680 623 364 309 312 265 195 16 236 250 204 148 22 0 191 304 365 408 511 460 502 443 494 491 476 474 484 497 487 450 359 667 506 484 566 647 659 661 592 384 404 468 446 423 479 522 601 591 451 481 407 639 683 741 738 775 758 692 642 642 644 647
613 586 616 428 350 338 298 119 218 50 198 1 64 0 0 50 229 234 2 213 304 400 360 324 354 384 420 438 302 249 301 245 289 278 346 396 403 346 347 374 390 386 345 321 331 277 195 153 150 221 256 252 249 296 485 547 530 508 503 533 574 606 630
460 410 378 298 271 286 272 204 40 0 92 182 10 0 0 0 37 0 231 219 299 361 286 326 369 327 317 270 148 156 218 178 185 222 296 319 379 304 310 246 192 184 186 166 137 116 99 81 7 3 0 0 0 21 208 320 339 346 399 480 504 521 542
442 279 341 163 0 163 112 197 206 97 0 0 0 0 0 0 0 0 0 42 194 240 242 228 224 218 172 84 59 89 164 123 160 178 117 131 130 148 158 158 158 149 129 38 20 9 4 1 0 0 0 0 0 2 9 44 26 86 144 161 184 191 199
116 33 0 0 18 0 0 0 0 35 114 0 0 0 0 0 0 0 0 0 86 118 121 137 157 36 85 102 136 111 127 139 98 130 181 162 152 160 152 169 152 118 84 68 34 1 1 1 0 0 0 0 0 0 4 1 0 0 0 0 0 0 0
20 6 33 0 74 0 15 0 0 0 0 0 0 0 0 0 0 0 0 31 68 70 74 76 0 0 22 77 20 0 11 111 103 113 141 150 166 146 153 169 130 82 0 2 0 0 0 0 0 0 0 0 4 2 2 6 0 0 0 0 0 0 0
92 44 12 0 0 0 0 6 0 0 0 0 0 0 0 0 0 0 0 0 0 0 0 53 69 0 0 0 0 0 0 29 0 0 0 0 105 55 0 98 102 35 0 22 22 0 0 0 0 0 0 0 1 0 0 0 4 0 2 0 0 0 0
68 40 22 11 5 6 4 0 0 0 0 0 0 0 0 0 0 0 0 0 0 0 0 0 0 0 0 0 0 0 0 106 100 82 0 0 64 32 0 67 72 71 0 0 0 0 0 0 0 0 0 0 0 0 0 0 0 0 0 0 0 8 59
16 12 9 1 0 8 4 0 0 0 0 0 0 0 0 0 0 0 0 0 0 0 0 0 0 12 64 0 0 0 0 44 49 48 73 79 43 1 0 0 0 0 0 1 0 1 0 0 0 0 0 0 0 1 0 0 0 0 0 0 0 0 0
50 37 117 1 0 1 1 0 0 0 1 1 0 0 0 0 0 0 0 0 0 0 0 0 0 0 78 0 0 0 0 0 0 0 0 0 0 0 0 0 0 1 1 0 0 0 0 0 0 0 0 0 0 0 0 0 0 0 0 0 0 0 0
182 75 48 8 1 0 0 0 0 0 0 0 0 0 0 0 0 0 0 0 0 0 0 0 0 0 0 0 0 0 0 0 0 0 0 0 0 0 0 0 0 0 0 0 0 0 0 0 0 0 0 0 0 0 0 0 0 0 0 0 0 0 0
244 288 139 21 2 1 16 13 1 0 0 0 0 0 0 0 0 0 0 0 0 0 0 0 0 0 0 0 0 0 0 0 0 0 2 0 3 0 0 0 0 0 0 0 0 0 0 0 0 0 0 0 1 0 0 0 0 0 0 0 0 0 0
458 426 256 204 24 10 15 36 35 28 9 0 0 0 0 0 0 0 0 0 0 0 0 0 0 0 0 0 0 0 0 1 0 0 0 0 0 0 1 1 2 0 0 0 0 0 0 0 0 0 0 0 0 1 0 0 0 0 0 0 0 0 0
Wind_Speed
nan nan 12 nan 13 11 10 11 11 12 15 16 14 15 14 17 17 15 13 10 9 10 11 10 9 9 7 8 8 9 9 10 10 10 10 10 10 10 9 8 8 7 7 6 6 4 5 4 5 3 3 1 2 1 2 1 3 3 3 4 5 5 4
nan nan nan nan nan nan nan 12 12 13 16 17 15 16 16 17 18 15 15 12 10 11 11 11 10 9 8 8 9 9 9 9 9 10 10 11 10 10 10 10 9 9 7 8 6 6 5 4 4 4 3 2 1 1 1 1 2 3 2 3 3 2 3
14 nan nan nan nan nan 12 13 13 15 16 16 15 16 17 18 18 17 17 13 11 11 11 12 10 10 9 9 8 9 9 9 9 9 8 9 8 8 9 10 8 8 5 7 6 6 5 4 4 4 2 2 2 1 0 1 1 1 0 1 2 3 2
15 nan 15 14 nan nan 13 14 14 15 15 15 16 16 18 19 18 18 17 15 13 12 12 12 11 11 10 10 9 9 9 9 9 9 8 8 9 9 9 9 7 8 6 6 6 4 7 5 5 5 2 4 2 3 2 2 3 3 3 2 1 3 2
15 16 17 16 nan nan 14 14 15 15 15 16 17 18 19 19 18 18 16 15 14 13 13 12 12 12 12 11 10 11 9 9 9 9 10 9 11 8 9 8 7 9 7 6 6 6 8 4 6 6 5 4 5 5 4 4 4 5 4 4 2 4 3
17 16 17 17 16 16 15 14 14 15 16 18 18 17 17 18 18 17 17 16 15 16 15 14 13 13 12 12 11 12 11 10 11 9 10 10 12 11 10 8 8 7 6 8 6 7 7 6 5 7 6 7 6 7 6 6 5 5 6 4 4 3 2
20 17 18 18 16 17 17 16 15 16 19 20 18 18 17 18 18 18 18 18 15 17 16 16 14 14 13 14 11 12 11 11 10 9 11 11 12 10 11 9 9 9 9 9 8 8 7 7 6 7 6 6 8 7 9 8 6 6 7 6 5 4 2
20 22 20 18 17 16 nan 18 16 18 21 21 20 19 16 18 18 17 18 19 17 20 17 19 16 17 16 14 13 12 12 11 12 11 11 9 13 10 12 11 10 12 10 11 9 9 9 8 8 8 8 6 8 8 11 10 8 7 8 7 6 5 5
17 27 33 24 17 18 19 21 19 20 21 22 22 18 16 18 17 19 19 19 18 20 19 20 18 19 18 15 15 13 13 13 13 12 10 9 11 10 10 12 11 13 11 11 11 10 8 10 8 10 8 6 9 8 9 10 8 7 7 8 6 5 3
11 18 26 21 18 20 21 22 21 22 23 23 23 18 18 22 22 21 19 20 20 19 19 20 18 20 19 17 15 14 14 14 13 13 12 10 11 11 11 12 13 13 11 11 12 12 10 10 9 12 9 8 9 9 7 9 7 7 7 7 7 6 5
11 12 20 20 19 20 21 23 23 24 25 26 25 23 23 23 22 21 20 21 21 19 19 20 19 19 20 17 17 16 15 14 13 14 13 12 12 12 12 11 12 14 11 13 12 12 14 12 11 13 11 8 10 9 8 8 8 7 6 7 7 7 6
14 15 24 33 33 28 26 26 27 27 28 27 25 24 24 25 24 22 22 20 21 20 21 20 21 20 22 18 18 18 16 15 15 15 14 13 13 14 14 13 12 13 14 13 13 12 13 15 12 13 12 9 10 10 10 9 9 8 6 6 7 8 6
16 15 17 22 26 31 35 35 33 31 31 28 27 27 26 26 24 23 22 22 23 22 22 22 22 21 22 19 19 20 18 16 15 16 16 16 14 15 17 16 14 14 14 16 14 14 14 16 14 15 14 12 10 11 12 11 10 10 9 7 7 7 8
18 16 16 16 18 21 23 30 34 35 35 32 30 29 29 27 26 24 23 24 24 23 23 23 23 23 23 22 21 21 19 18 18 18 17 17 18 16 16 17 17 17 17 17 16 14 16 15 16 16 15 15 12 11 12 12 10 11 9 9 7 8 9
15 14 15 15 15 16 16 20 26 31 34 35 34 33 32 29 28 26 25 25 25 24 22 23 24 25 25 24 23 23 21 21 20 20 20 21 21 19 16 18 18 19 19 18 16 17 17 17 16 16 15 14 13 12 12 12 12 11 11 10 9 6 7
15 11 14 14 14 14 15 15 17 22 30 36 36 32 31 30 29 28 28 27 26 25 24 25 26 26 26 25 25 25 23 21 22 22 21 21 21 20 20 18 18 18 19 19 18 18 18 18 18 17 16 16 15 14 13 13 12 13 13 13 12 11 9
14 13 11 10 12 13 16 16 16 17 21 31 36 33 30 30 30 29 29 29 28 27 27 26 27 28 27 27 27 27 26 25 24 23 22 23 22 21 21 20 19 19 19 19 20 19 19 19 17 18 17 16 16 16 16 15 22 25 24 21 18 12 12
15 15 13 12 13 13 14 15 16 15 14 20 31 33 30 30 31 31 32 31 30 31 31 30 30 29 28 29 29 28 27 27 25 24 23 24 23 22 22 22 21 21 21 20 19 21 19 20 18 18 18 nan nan 18 17 25 29 31 30 30 26 22 16
19 17 16 14 15 16 17 14 13 14 13 12 23 30 36 38 35 35 35 34 34 37 35 33 32 32 30 33 33 31 29 27 24 23 22 22 24 24 23 23 21 22 22 21 21 21 21 20 20 19 19 18 18 nan nan 34 31 33 34 32 30 27 21
27 26 25 24 25 27 26 26 26 26 26 22 24 30 36 44 50 50 48 48 47 41 37 36 35 33 32 31 32 30 28 27 25 22 20 22 22 22 22 22 23 24 24 24 24 24 22 21 20 20 21 21 22 24 31 35 33 33 34 33 32 29 22
32 31 30 29 28 27 27 28 27 25 25 26 26 27 28 35 47 53 50 47 47 47 48 48 46 41 35 34 33 29 26 24 22 21 22 23 22 20 20 21 23 23 24 24 24 24 25 27 28 26 24 24 25 31 40 34 35 36 34 34 30 29 24
33 34 33 32 31 30 29 28 27 26 27 27 28 27 27 29 35 45 47 44 45 48 51 48 42 38 36 37 35 32 28 26 25 25 25 27 26 25 24 24 23 24 25 25 27 30 32 31 31 29 24 34 35 37 35 39 39 39 38 36 33 28 23
39 38 37 36 36 35 33 32 32 29 29 30 32 32 32 30 32 36 38 39 39 43 49 51 48 44 42 42 41 40 38 35 33 33 31 30 28 31 32 30 29 29 30 26 26 29 30 27 31 32 33 39 38 37 35 41 43 41 41 38 36 28 25
40 40 41 42 43 41 38 37 36 35 34 36 38 38 35 33 32 32 34 35 34 36 41 48 50 47 46 45 44 42 41 40 40 39 40 39 36 32 34 35 35 34 35 35 35 32 29 30 33 34 36 38 35 30 36 41 45 47 43 41 39 34 29
41 42 43 44 46 46 44 42 42 42 40 38 39 38 39 38 36 34 32 30 29 28 31 39 46 48 48 48 47 46 45 44 43 43 38 35 32 34 36 36 35 36 36 34 33 33 32 32 33 32 32 34 32 33 36 41 45 48 45 43 43 39 33
44 44 45 47 48 49 48 45 nan 46 46 43 40 nan nan 39 39 39 35 30 26 26 25 28 33 39 44 46 48 49 49 49 50 50 49 47 43 36 36 35 35 35 35 33 31 30 32 33 34 34 32 31 31 30 31 32 36 43 44 43 41 40 34
47 49 50 49 49 48 46 45 45 nan 47 nan nan nan nan nan 39 38 nan 38 35 34 31 28 25 26 31 36 41 45 50 52 53 53 50 47 44 38 35 36 37 35 32 32 32 31 29 31 32 32 31 32 33 33 29 24 25 31 37 39 38 38 37
50 52 52 49 46 47 47 45 nan nan nan 42 nan nan nan nan nan nan 43 43 42 40 39 36 31 27 27 27 27 29 39 44 47 47 44 41 40 39 39 38 37 36 37 36 36 36 nan nan nan nan nan nan nan nan 33 29 25 23 27 30 33 35 37
50 50 49 47 nan 49 48 45 45 nan nan nan nan nan nan nan nan nan nan nan 43 42 41 40 37 35 34 nan nan nan 26 28 31 32 32 33 34 35 36 35 38 39 37 nan nan nan nan nan nan nan nan nan nan nan nan nan nan nan 24 24 25 27 30
43 nan nan nan nan nan nan nan nan nan 41 nan nan nan nan nan nan nan nan nan nan 40 40 39 37 nan nan 33 30 28 27 28 nan 30 30 31 33 34 35 36 36 35 nan nan nan nan nan nan nan nan nan nan nan nan nan nan nan nan nan nan nan nan nan
nan nan nan nan nan nan nan nan nan nan nan nan nan nan nan nan nan nan nan nan nan nan nan nan nan nan nan nan nan nan nan 35 35 34 33 32 32 31 32 33 34 nan nan nan nan nan nan nan nan nan nan nan nan nan nan nan nan nan nan nan nan nan nan
nan nan nan nan nan nan nan nan nan nan nan nan nan nan nan nan nan nan nan nan nan nan nan nan nan nan nan nan nan nan nan nan nan nan nan nan 31 nan nan nan 31 nan nan nan nan nan nan nan nan nan nan nan nan nan nan nan nan nan nan nan nan nan nan
nan nan nan nan nan nan nan nan nan nan nan nan nan nan nan nan nan nan nan nan nan nan nan nan nan nan nan nan nan nan nan 32 32 nan nan nan nan nan nan nan nan nan nan nan nan nan nan nan nan nan nan nan nan nan nan nan nan nan nan nan nan nan nan
nan nan nan nan nan nan nan nan nan nan nan nan nan nan nan nan nan nan nan nan nan nan nan nan nan nan nan nan nan nan nan nan nan nan nan nan nan nan nan nan nan nan nan nan nan nan nan nan nan nan nan nan nan nan nan nan nan nan nan nan nan nan nan
nan nan 45 nan nan nan nan nan nan nan nan nan nan nan nan nan nan nan nan nan nan nan nan nan nan nan nan nan nan nan nan nan nan nan nan nan nan nan nan nan nan nan nan nan nan nan nan nan nan nan nan nan nan nan nan nan nan nan nan nan nan nan nan
50 nan nan nan nan nan nan nan nan nan nan nan nan nan nan nan nan nan nan nan nan nan nan nan nan nan nan nan nan nan nan nan nan nan nan nan nan nan nan nan nan nan nan nan nan nan nan nan nan nan nan nan nan nan nan nan nan nan nan nan nan nan nan
50 48 47 nan nan nan nan nan nan nan nan nan nan nan nan nan nan nan nan nan nan nan nan nan nan nan nan nan nan nan nan nan nan nan nan nan nan nan nan nan nan nan nan nan nan nan nan nan nan nan nan nan nan nan nan nan nan nan nan nan nan nan nan
48 50 49 47 nan nan nan nan nan nan nan nan nan nan nan nan nan nan nan nan nan nan nan nan nan nan nan nan nan nan nan nan nan nan nan nan nan nan nan nan nan nan nan nan nan nan nan nan nan nan nan nan nan nan nan nan nan nan nan nan nan nan nan
Wind_Direction
nan nan 237 nan 242 240 241 240 239 239 244 246 239 249 241 241 241 238 240 240 246 256 261 257 255 247 238 226 229 230 230 229 226 222 216 218 216 223 224 223 234 232 241 246 255 248 266 271 285 292 295 334 55 58 89 74 78 70 48 60 39 66 70
nan nan nan nan nan nan nan 242 238 232 239 243 240 243 241 244 243 242 241 241 242 252 261 262 259 253 248 235 229 234 233 235 233 227 223 222 218 220 223 226 229 230 217 235 236 251 265 268 279 272 278 290 106 112 68 62 76 79 55 31 53 55 62
241 nan nan nan nan nan 238 243 238 232 236 241 242 246 245 242 244 244 246 247 246 249 255 264 263 257 252 245 240 242 236 237 239 236 231 231 223 232 232 232 221 235 224 242 244 254 262 275 272 266 265 265 283 259 114 336 10 24 319 330 25 15 13
236 nan 244 242 nan nan 230 233 239 232 234 238 243 246 246 248 246 245 245 249 250 250 255 261 264 259 252 251 245 247 244 237 238 239 233 234 237 232 237 240 226 235 234 232 240 227 254 263 280 274 277 274 277 295 325 316 321 324 320 319 350 323 339
242 245 246 245 nan nan 234 234 238 234 234 237 239 240 242 246 245 247 246 249 252 254 253 258 257 257 248 248 238 243 247 249 240 236 239 227 248 233 238 238 238 240 218 248 243 222 254 266 279 278 289 278 291 295 307 309 306 306 305 310 322 313 331
237 242 245 251 249 244 241 242 245 242 239 238 239 243 244 248 243 247 246 246 248 255 253 250 250 254 252 252 238 243 249 248 243 230 241 235 234 235 239 230 246 251 265 242 242 253 252 257 272 281 295 298 301 302 300 301 300 303 299 306 306 296 330
237 230 240 246 251 250 251 246 246 246 241 240 237 237 242 245 244 242 243 247 245 254 259 259 253 252 245 244 242 249 251 256 249 248 237 240 248 239 243 240 235 244 237 244 242 253 261 262 267 277 285 297 293 299 294 291 296 293 292 295 296 285 281
227 228 229 237 241 249 nan 251 244 247 243 239 240 236 243 243 247 244 241 241 239 246 243 254 256 254 250 246 245 246 248 250 252 247 242 241 254 245 246 247 242 245 238 252 240 247 260 267 272 273 279 288 292 294 296 298 297 302 295 295 291 295 298
224 220 211 203 234 234 244 249 243 245 243 240 245 237 238 245 237 243 242 242 239 243 242 245 248 254 250 249 248 252 252 250 252 250 249 247 246 252 250 251 250 252 248 248 256 251 249 263 267 270 271 271 283 284 290 295 302 299 294 291 292 286 263
261 233 229 193 200 225 232 243 243 244 245 241 240 242 243 241 242 245 242 241 242 243 247 246 244 251 253 253 252 255 254 253 252 259 257 251 243 247 246 246 252 254 251 253 255 260 254 261 263 272 268 273 277 288 282 289 292 294 296 291 286 281 277
266 250 232 221 221 225 230 235 241 239 243 240 237 237 242 246 246 247 245 245 244 244 249 247 244 247 254 253 257 258 258 263 259 261 262 260 256 256 254 250 246 255 254 257 249 255 267 261 260 270 275 279 284 286 287 285 289 289 292 295 291 292 290
285 256 227 221 222 230 238 237 241 244 247 243 238 239 242 246 248 248 249 250 248 246 250 248 247 241 248 246 253 253 256 254 261 264 264 260 259 267 264 255 257 256 260 257 261 257 256 268 265 272 278 280 286 292 295 292 289 290 286 287 290 288 287
280 273 251 235 229 229 230 234 242 246 247 245 244 242 242 244 247 249 252 254 251 247 249 250 252 250 250 247 248 249 250 251 252 256 262 261 256 260 266 267 262 261 257 258 257 259 261 264 269 273 279 284 284 290 295 299 300 295 299 295 290 292 292
281 277 271 253 249 247 246 242 238 240 241 243 244 245 243 242 243 246 250 253 252 251 250 250 253 253 252 249 245 247 248 247 244 244 247 255 253 243 255 266 268 263 258 259 265 265 267 268 268 268 276 281 284 282 284 289 297 301 304 305 302 303 305
292 293 285 284 271 264 260 254 245 242 243 240 238 240 243 242 244 244 246 249 252 253 254 254 254 253 253 250 249 249 246 243 243 242 241 240 246 250 241 249 259 264 266 263 258 264 268 273 276 276 276 277 275 278 274 281 290 292 299 302 303 290 300
280 288 292 292 287 280 268 269 267 256 246 238 236 236 238 241 244 245 247 248 251 253 253 253 253 253 252 250 250 251 251 250 248 248 248 249 250 249 251 250 252 257 265 267 267 261 261 266 273 276 280 280 282 276 273 266 273 287 286 269 273 299 293
283 285 281 289 290 279 269 267 273 279 260 242 236 235 232 235 239 242 245 246 248 250 251 249 253 252 249 248 247 249 249 249 250 250 251 251 251 253 253 251 252 253 257 264 266 265 264 264 272 277 275 277 278 279 272 273 254 264 286 288 270 263 274
278 276 277 276 274 278 276 273 276 291 283 246 235 233 231 235 237 239 242 244 245 245 244 245 246 246 245 246 244 245 246 244 245 246 249 250 250 252 252 252 255 255 257 258 264 266 265 269 269 269 274 nan nan 274 272 264 258 263 256 256 255 254 260
267 270 271 274 276 268 262 264 271 282 289 260 235 235 233 232 236 237 240 240 243 242 242 243 244 244 244 242 239 237 236 235 238 240 244 251 250 248 250 252 254 256 255 256 254 257 263 265 268 272 271 266 268 nan nan 263 250 254 255 254 250 249 250
253 257 257 256 257 256 256 253 248 249 253 252 246 241 240 239 238 235 234 233 232 236 242 245 244 245 246 244 242 237 234 234 229 235 241 246 248 248 248 250 252 255 254 253 254 253 254 257 259 264 267 266 261 263 262 259 249 249 250 253 253 252 251
250 254 256 256 255 254 255 255 258 259 260 256 255 257 258 249 238 234 235 238 238 238 234 232 238 240 244 247 246 245 241 237 239 240 245 247 247 250 255 257 257 257 256 255 255 255 252 250 244 237 243 259 263 259 257 252 242 246 248 249 251 253 252
250 253 255 256 258 260 261 262 261 261 260 261 261 259 262 260 240 232 235 242 244 241 241 239 237 233 230 239 241 241 241 238 235 238 242 247 250 253 254 255 257 255 256 255 254 251 248 244 246 247 242 244 244 255 251 255 244 242 242 241 243 247 257
247 251 253 256 259 259 260 261 263 264 264 265 264 259 256 254 253 248 245 246 249 250 243 235 234 236 237 238 238 238 238 238 239 241 239 244 250 253 252 252 252 253 252 254 256 257 258 251 255 259 257 256 256 268 264 261 251 246 244 242 240 246 258
248 250 251 253 256 258 259 259 260 261 263 264 262 261 254 250 252 255 253 248 251 257 248 237 232 233 233 233 234 237 239 239 239 239 237 238 244 249 250 250 249 249 247 245 247 251 252 253 255 254 257 258 261 264 263 258 251 247 245 243 242 244 254
248 252 254 255 256 256 257 258 258 260 261 260 260 259 258 254 250 250 246 243 247 253 250 240 234 235 238 236 233 236 239 240 240 241 245 248 245 243 247 248 247 247 248 247 247 247 250 249 251 253 253 256 261 261 259 254 250 246 243 241 241 244 251
253 255 254 253 253 254 254 255 nan 258 259 260 260 nan nan 260 258 259 259 256 252 249 247 243 237 233 235 234 234 235 237 238 237 238 242 246 245 243 247 247 245 244 245 246 244 247 250 252 249 251 255 260 262 262 260 257 249 244 241 243 241 242 246
249 247 249 251 253 254 255 254 254 nan 254 nan nan nan nan nan 262 262 nan 264 262 257 254 255 254 247 240 234 232 237 239 237 236 241 244 243 240 239 239 238 240 241 243 245 246 248 250 252 254 257 258 259 259 260 263 265 260 253 246 245 243 242 243
251 250 252 252 253 254 252 249 nan nan nan 252 nan nan nan nan nan nan 264 267 269 268 265 261 255 255 258 252 234 232 242 238 234 238 238 236 234 232 231 233 236 237 237 240 244 244 nan nan nan nan nan nan nan nan 269 270 269 271 260 248 245 244 244
249 250 249 248 nan 248 249 248 252 nan nan nan nan nan nan nan nan nan nan nan 268 270 271 269 265 262 263 nan nan nan 234 230 234 237 240 236 235 235 233 232 234 234 237 nan nan nan nan nan nan nan nan nan nan nan nan nan nan nan 266 261 250 247 246
253 nan nan nan nan nan nan nan nan nan 250 nan nan nan nan nan nan nan nan nan nan 265 266 266 265 nan nan 260 257 252 254 252 nan 246 246 246 242 241 238 235 236 239 nan nan nan nan nan nan nan nan nan nan nan nan nan nan nan nan nan nan nan nan nan
nan nan nan nan nan nan nan nan nan nan nan nan nan nan nan nan nan nan nan nan nan nan nan nan nan nan nan nan nan nan nan 259 258 259 258 251 249 248 246 244 242 nan nan nan nan nan nan nan nan nan nan nan nan nan nan nan nan nan nan nan nan nan nan
nan nan nan nan nan nan nan nan nan nan nan nan nan nan nan nan nan nan nan nan nan nan nan nan nan nan nan nan nan nan nan nan nan nan nan nan 244 nan nan nan 243 nan nan nan nan nan nan nan nan nan nan nan nan nan nan nan nan nan nan nan nan nan nan
nan nan nan nan nan nan nan nan nan nan nan nan nan nan nan nan nan nan nan nan nan nan nan nan nan nan nan nan nan nan nan 245 244 nan nan nan nan nan nan nan nan nan nan nan nan nan nan nan nan nan nan nan nan nan nan nan nan nan nan nan nan nan nan
nan nan nan nan nan nan nan nan nan nan nan nan nan nan nan nan nan nan nan nan nan nan nan nan nan nan nan nan nan nan nan nan nan nan nan nan nan nan nan nan nan nan nan nan nan nan nan nan nan nan nan nan nan nan nan nan nan nan nan nan nan nan nan
nan nan 258 nan nan nan nan nan nan nan nan nan nan nan nan nan nan nan nan nan nan nan nan nan nan nan nan nan nan nan nan nan nan nan nan nan nan nan nan nan nan nan nan nan nan nan nan nan nan nan nan nan nan nan nan nan nan nan nan nan nan nan nan
259 nan nan nan nan nan nan nan nan nan nan nan nan nan nan nan nan nan nan nan nan nan nan nan nan nan nan nan nan nan nan nan nan nan nan nan nan nan nan nan nan nan nan nan nan nan nan nan nan nan nan nan nan nan nan nan nan nan nan nan nan nan nan
264 262 262 nan nan nan nan nan nan nan nan nan nan nan nan nan nan nan nan nan nan nan nan nan nan nan nan nan nan nan nan nan nan nan nan nan nan nan nan nan nan nan nan nan nan nan nan nan nan nan nan nan nan nan nan nan nan nan nan nan nan nan nan
258 258 257 256 nan nan nan nan nan nan nan nan nan nan nan nan nan nan nan nan nan nan nan nan nan nan nan nan nan nan nan nan nan nan nan nan nan nan nan nan nan nan nan nan nan nan nan nan nan nan nan nan nan nan nan nan nan nan nan nan nan nan nan